DFGKC EDLM-EDDN

Flight info

Callsign DFGKC
Flight time 1h 30m
Altitude 7000
Route DCT GMH/N0175F070 IFR DCT BIGSU L603 TESGA Z719 OSBIT L984 KOMIB T193 ERTES
Aircraft C208/L-SDFGR/C

Departure

Time 2026-05-07 18:34
Airport Marl-Loemühle Airfield (EDLM)

Arrival

Time 2026-05-07 20:05
Airport Nuremberg Airport (EDDN)
Time Latitude Longitude Altitude Speed Heading
2026-05-07 17:58 51.64789 7.16023 237 ft 0 kts 158°
2026-05-07 18:00 51.64756 7.16088 237 ft 0 kts 158°
2026-05-07 18:00 51.64763 7.16115 237 ft 0 kts 158°
2026-05-07 18:31 51.64746 7.16076 237 ft 8 kts 256°
2026-05-07 18:31 51.64731 7.15987 237 ft 8 kts 244°
2026-05-07 18:31 51.64691 7.15941 237 ft 6 kts 189°
2026-05-07 18:32 51.64690 7.15941 237 ft 0 kts 189°
2026-05-07 18:32 51.64677 7.15938 237 ft 14 kts 190°
2026-05-07 18:33 51.64648 7.15967 237 ft 0 kts 71°
2026-05-07 18:33 51.64719 7.16323 240 ft 72 kts 72°
2026-05-07 18:34 51.64913 7.17291 410 ft 95 kts 72°
2026-05-07 18:34 51.65109 7.18301 728 ft 98 kts 70°
2026-05-07 18:34 51.65350 7.19375 948 ft 106 kts 71°
2026-05-07 18:34 51.65463 7.20552 1150 ft 112 kts 107°
2026-05-07 18:35 51.64847 7.21279 1359 ft 119 kts 166°
2026-05-07 18:35 51.64051 7.20991 1559 ft 127 kts 218°
2026-05-07 18:35 51.63698 7.19696 1778 ft 128 kts 256°
2026-05-07 18:35 51.63312 7.18446 1975 ft 127 kts 220°
2026-05-07 18:36 51.62611 7.17402 2007 ft 148 kts 219°
2026-05-07 18:36 51.61646 7.16894 1999 ft 155 kts 170°
2026-05-07 18:36 51.60698 7.17676 2018 ft 156 kts 141°
2026-05-07 18:36 51.59724 7.18484 2021 ft 161 kts 160°
2026-05-07 18:37 51.58642 7.18976 2019 ft 162 kts 162°
2026-05-07 18:37 51.57550 7.19450 2015 ft 163 kts 162°
2026-05-07 18:37 51.56447 7.19925 2013 ft 165 kts 162°
2026-05-07 18:37 51.55331 7.20400 2013 ft 166 kts 162°
2026-05-07 18:38 51.54217 7.20884 2014 ft 166 kts 162°
2026-05-07 18:38 51.53122 7.21350 2136 ft 160 kts 162°
2026-05-07 18:38 51.52058 7.21809 2258 ft 156 kts 162°
2026-05-07 18:38 51.51017 7.22255 2386 ft 155 kts 162°
2026-05-07 18:39 51.49997 7.22763 2501 ft 153 kts 154°
2026-05-07 18:39 51.49029 7.23469 2633 ft 153 kts 154°
2026-05-07 18:39 51.48043 7.24164 2764 ft 155 kts 154°
2026-05-07 18:39 51.47053 7.24856 2889 ft 155 kts 154°
2026-05-07 18:40 51.46061 7.25555 3016 ft 157 kts 154°
2026-05-07 18:40 51.45059 7.26259 3150 ft 158 kts 154°
2026-05-07 18:40 51.44048 7.26967 3280 ft 159 kts 155°
2026-05-07 18:40 51.43031 7.27682 3409 ft 160 kts 154°
2026-05-07 18:41 51.42036 7.28482 3533 ft 160 kts 146°
2026-05-07 18:41 51.41087 7.29412 3662 ft 161 kts 147°
2026-05-07 18:41 51.40120 7.30335 3794 ft 162 kts 147°
2026-05-07 18:41 51.39151 7.31259 3920 ft 162 kts 147°
2026-05-07 18:42 51.38181 7.32189 4008 ft 165 kts 147°
2026-05-07 18:42 51.37180 7.33141 4007 ft 170 kts 147°
2026-05-07 18:42 51.36159 7.34118 4015 ft 172 kts 147°
2026-05-07 18:42 51.35124 7.35101 4020 ft 174 kts 147°
2026-05-07 18:43 51.34085 7.36092 4016 ft 174 kts 147°
2026-05-07 18:43 51.33046 7.37085 4015 ft 174 kts 147°
2026-05-07 18:43 51.32000 7.38080 4011 ft 175 kts 148°
2026-05-07 18:43 51.31107 7.39356 4007 ft 172 kts 122°
2026-05-07 18:44 51.30583 7.41059 4010 ft 171 kts 111°
2026-05-07 18:44 51.30101 7.42787 4010 ft 170 kts 112°
2026-05-07 18:44 51.29618 7.44518 4011 ft 171 kts 111°
2026-05-07 18:44 51.29135 7.46250 4009 ft 171 kts 111°
2026-05-07 18:45 51.28650 7.47985 4012 ft 172 kts 111°
2026-05-07 18:45 51.28165 7.49725 4014 ft 172 kts 112°
2026-05-07 18:45 51.27680 7.51465 4014 ft 172 kts 112°
2026-05-07 18:45 51.27192 7.53208 4015 ft 172 kts 112°
2026-05-07 18:46 51.26705 7.54950 4010 ft 171 kts 112°
2026-05-07 18:46 51.26220 7.56686 4015 ft 172 kts 112°
2026-05-07 18:46 51.25731 7.58427 4013 ft 172 kts 112°
2026-05-07 18:46 51.25245 7.60161 4073 ft 168 kts 112°
2026-05-07 18:47 51.24779 7.61815 4273 ft 160 kts 112°
2026-05-07 18:47 51.24339 7.63391 4466 ft 155 kts 112°
2026-05-07 18:47 51.23900 7.64952 4667 ft 154 kts 112°
2026-05-07 18:47 51.23465 7.66502 4872 ft 153 kts 112°
2026-05-07 18:48 51.23031 7.68044 5072 ft 152 kts 112°
2026-05-07 18:48 51.22597 7.69587 5275 ft 153 kts 112°
2026-05-07 18:48 51.22161 7.71130 5478 ft 153 kts 112°
2026-05-07 18:48 51.21726 7.72682 5684 ft 153 kts 112°
2026-05-07 18:49 51.21287 7.74235 5890 ft 154 kts 113°
2026-05-07 18:49 51.20847 7.75793 6099 ft 154 kts 113°
2026-05-07 18:49 51.20407 7.77350 6303 ft 154 kts 114°
2026-05-07 18:49 51.19968 7.78907 6513 ft 154 kts 114°
2026-05-07 18:50 51.19528 7.80459 6709 ft 154 kts 114°
2026-05-07 18:50 51.19089 7.82013 6902 ft 154 kts 114°
2026-05-07 18:50 51.18646 7.83575 7086 ft 156 kts 114°
2026-05-07 18:50 51.18184 7.85202 7100 ft 165 kts 114°
2026-05-07 18:51 51.17720 7.86909 7111 ft 170 kts 114°
2026-05-07 18:51 51.17462 7.88753 7109 ft 172 kts 95°
2026-05-07 18:51 51.17352 7.90665 7107 ft 174 kts 94°
2026-05-07 18:51 51.17258 7.92596 7106 ft 175 kts 93°
2026-05-07 18:52 51.17166 7.94537 7107 ft 176 kts 93°
2026-05-07 18:52 51.17075 7.96479 7108 ft 176 kts 93°
2026-05-07 18:52 51.16985 7.98425 7106 ft 176 kts 93°
2026-05-07 18:52 51.16897 8.00374 7109 ft 176 kts 93°
2026-05-07 18:53 51.16809 8.02325 7107 ft 177 kts 93°
2026-05-07 18:53 51.16719 8.04271 7104 ft 176 kts 94°
2026-05-07 18:53 51.16316 8.06086 7107 ft 176 kts 122°
2026-05-07 18:53 51.15558 8.07604 7097 ft 175 kts 135°
2026-05-07 18:54 51.14689 8.08985 7104 ft 178 kts 139°
2026-05-07 18:54 51.13717 8.10212 7105 ft 179 kts 144°
2026-05-07 18:54 51.12646 8.11220 7106 ft 179 kts 153°
2026-05-07 18:54 51.11525 8.12065 7111 ft 179 kts 161°
2026-05-07 18:55 51.10345 8.12696 7104 ft 179 kts 162°
2026-05-07 18:55 51.09185 8.13423 7098 ft 179 kts 159°
2026-05-07 18:55 51.08029 8.14166 7104 ft 180 kts 159°
2026-05-07 18:55 51.06868 8.14912 7101 ft 180 kts 159°
2026-05-07 18:56 51.05704 8.15661 7098 ft 181 kts 159°
2026-05-07 18:56 51.04537 8.16410 7102 ft 181 kts 159°
2026-05-07 18:56 51.03372 8.17158 7100 ft 181 kts 159°
2026-05-07 18:56 51.02210 8.17909 7099 ft 180 kts 159°
2026-05-07 18:57 51.01048 8.18658 7103 ft 180 kts 159°
2026-05-07 18:57 50.99888 8.19404 7094 ft 179 kts 159°
2026-05-07 18:57 50.98735 8.20148 7090 ft 179 kts 159°
2026-05-07 18:57 50.97577 8.20890 7093 ft 179 kts 159°
2026-05-07 18:58 50.96419 8.21634 7084 ft 180 kts 159°
2026-05-07 18:58 50.95260 8.22378 7078 ft 179 kts 159°
2026-05-07 18:58 50.94104 8.23121 7087 ft 179 kts 159°
2026-05-07 18:58 50.92965 8.23852 7081 ft 179 kts 159°
2026-05-07 18:59 50.91790 8.24606 7090 ft 180 kts 159°
2026-05-07 18:59 50.90628 8.25349 7077 ft 180 kts 159°
2026-05-07 18:59 50.89490 8.26097 7078 ft 180 kts 156°
2026-05-07 18:59 50.88376 8.26999 7077 ft 180 kts 153°
2026-05-07 19:00 50.87265 8.27924 7093 ft 180 kts 153°
2026-05-07 19:00 50.86157 8.28848 7092 ft 180 kts 153°
2026-05-07 19:00 50.85051 8.29775 7092 ft 180 kts 153°
2026-05-07 19:00 50.83944 8.30702 7103 ft 180 kts 153°
2026-05-07 19:01 50.82836 8.31629 7088 ft 180 kts 153°
2026-05-07 19:01 50.81726 8.32559 7089 ft 181 kts 153°
2026-05-07 19:01 50.80615 8.33493 7086 ft 181 kts 153°
2026-05-07 19:01 50.79504 8.34427 7093 ft 181 kts 153°
2026-05-07 19:02 50.78389 8.35361 7083 ft 182 kts 153°
2026-05-07 19:02 50.77246 8.36204 7080 ft 181 kts 162°
2026-05-07 19:02 50.76051 8.36785 7085 ft 179 kts 173°
2026-05-07 19:02 50.74816 8.36881 7085 ft 178 kts 178°
2026-05-07 19:03 50.73607 8.37319 7092 ft 181 kts 158°
2026-05-07 19:03 50.72488 8.38230 7088 ft 181 kts 152°
2026-05-07 19:03 50.71387 8.39193 7097 ft 181 kts 152°
2026-05-07 19:03 50.70281 8.40139 7092 ft 180 kts 153°
2026-05-07 19:04 50.69536 8.40773 7089 ft 180 kts 153°
2026-05-07 19:04 50.68436 8.41708 7094 ft 180 kts 153°
2026-05-07 19:04 50.67332 8.42645 7086 ft 180 kts 153°
2026-05-07 19:04 50.66226 8.43579 7090 ft 181 kts 153°
2026-05-07 19:05 50.65118 8.44517 7093 ft 181 kts 153°
2026-05-07 19:05 50.64009 8.45453 7092 ft 181 kts 153°
2026-05-07 19:05 50.62902 8.46393 7094 ft 181 kts 153°
2026-05-07 19:05 50.61793 8.47327 7087 ft 181 kts 153°
2026-05-07 19:06 50.60685 8.48263 7091 ft 181 kts 153°
2026-05-07 19:06 50.58470 8.50133 7093 ft 180 kts 153°
2026-05-07 19:06 50.57366 8.51063 7099 ft 180 kts 153°
2026-05-07 19:07 50.56260 8.51994 7091 ft 180 kts 153°
2026-05-07 19:07 50.55156 8.52925 7090 ft 180 kts 153°
2026-05-07 19:07 50.54050 8.53859 7091 ft 180 kts 153°
2026-05-07 19:07 50.52945 8.54787 7095 ft 180 kts 153°
2026-05-07 19:08 50.51841 8.55717 7088 ft 180 kts 153°
2026-05-07 19:08 50.50735 8.56645 7090 ft 180 kts 153°
2026-05-07 19:08 50.49627 8.57576 7087 ft 180 kts 153°
2026-05-07 19:08 50.48522 8.58505 7087 ft 180 kts 153°
2026-05-07 19:09 50.47420 8.59430 7097 ft 180 kts 153°
2026-05-07 19:09 50.46316 8.60355 7086 ft 180 kts 153°
2026-05-07 19:09 50.45211 8.61282 7086 ft 180 kts 153°
2026-05-07 19:09 50.44148 8.62314 7083 ft 181 kts 140°
2026-05-07 19:10 50.43231 8.63622 7081 ft 181 kts 139°
2026-05-07 19:10 50.42270 8.64931 7083 ft 181 kts 140°
2026-05-07 19:10 50.41335 8.66204 7083 ft 181 kts 140°
2026-05-07 19:10 50.40385 8.67497 7083 ft 181 kts 140°
2026-05-07 19:11 50.39436 8.68796 7088 ft 181 kts 140°
2026-05-07 19:11 50.38485 8.70093 7085 ft 181 kts 140°
2026-05-07 19:11 50.37534 8.71392 7081 ft 181 kts 140°
2026-05-07 19:11 50.36595 8.72670 7080 ft 182 kts 140°
2026-05-07 19:12 50.35628 8.73992 7081 ft 182 kts 140°
2026-05-07 19:12 50.34705 8.75245 7086 ft 182 kts 140°
2026-05-07 19:12 50.33751 8.76544 7081 ft 182 kts 140°
2026-05-07 19:12 50.32796 8.77840 7077 ft 181 kts 140°
2026-05-07 19:13 50.31844 8.79137 7083 ft 181 kts 140°
2026-05-07 19:13 50.30891 8.80427 7084 ft 181 kts 141°
2026-05-07 19:13 50.29760 8.81152 7070 ft 178 kts 181°
2026-05-07 19:13 50.28651 8.80482 7078 ft 173 kts 225°
2026-05-07 19:14 50.28003 8.78938 7089 ft 170 kts 243°
2026-05-07 19:14 50.27439 8.77311 7095 ft 170 kts 243°
2026-05-07 19:14 50.26877 8.75679 7093 ft 171 kts 243°
2026-05-07 19:14 50.26315 8.74043 7095 ft 171 kts 243°
2026-05-07 19:15 50.25752 8.72401 7098 ft 171 kts 243°
2026-05-07 19:15 50.25190 8.70762 7090 ft 171 kts 243°
2026-05-07 19:15 50.24625 8.69121 7089 ft 171 kts 243°
2026-05-07 19:15 50.24062 8.67483 7091 ft 171 kts 243°
2026-05-07 19:16 50.23498 8.65839 7094 ft 172 kts 243°
2026-05-07 19:16 50.22935 8.64197 7092 ft 172 kts 243°
2026-05-07 19:16 50.22374 8.62552 7093 ft 172 kts 243°
2026-05-07 19:16 50.21814 8.60908 7095 ft 172 kts 243°
2026-05-07 19:17 50.21252 8.59266 7089 ft 172 kts 243°
2026-05-07 19:17 50.20690 8.57618 7089 ft 172 kts 243°
2026-05-07 19:17 50.20129 8.55976 7094 ft 172 kts 243°
2026-05-07 19:17 50.19568 8.54333 7090 ft 172 kts 243°
2026-05-07 19:18 50.19009 8.52688 7091 ft 172 kts 243°
2026-05-07 19:18 50.18448 8.51043 7093 ft 172 kts 243°
2026-05-07 19:18 50.17888 8.49399 7091 ft 172 kts 243°
2026-05-07 19:18 50.17328 8.47754 7094 ft 171 kts 243°
2026-05-07 19:19 50.16771 8.46116 7086 ft 171 kts 243°
2026-05-07 19:19 50.16213 8.44476 7082 ft 171 kts 243°
2026-05-07 19:19 50.15657 8.42836 7081 ft 171 kts 243°
2026-05-07 19:19 50.15107 8.41216 7084 ft 171 kts 243°
2026-05-07 19:20 50.14543 8.39556 7080 ft 171 kts 243°
2026-05-07 19:20 50.13985 8.37919 7080 ft 171 kts 243°
2026-05-07 19:20 50.13429 8.36278 7083 ft 171 kts 243°
2026-05-07 19:20 50.12870 8.34635 7087 ft 172 kts 243°
2026-05-07 19:21 50.12312 8.32991 7084 ft 172 kts 243°
2026-05-07 19:21 50.11763 8.31368 7085 ft 172 kts 243°
2026-05-07 19:21 50.11204 8.29725 7085 ft 172 kts 243°
2026-05-07 19:21 50.10577 8.28153 7072 ft 173 kts 226°
2026-05-07 19:22 50.09477 8.27469 7070 ft 176 kts 181°
2026-05-07 19:22 50.08351 8.28169 7066 ft 179 kts 139°
2026-05-07 19:22 50.07491 8.29564 7078 ft 179 kts 134°
2026-05-07 19:22 50.06642 8.30981 7087 ft 179 kts 133°
2026-05-07 19:23 50.05795 8.32408 7086 ft 180 kts 133°
2026-05-07 19:23 50.04946 8.33838 7086 ft 180 kts 133°
2026-05-07 19:23 50.04095 8.35270 7086 ft 180 kts 133°
2026-05-07 19:23 50.03242 8.36704 7084 ft 181 kts 133°
2026-05-07 19:24 50.02387 8.38140 7081 ft 181 kts 133°
2026-05-07 19:24 50.01531 8.39576 7082 ft 181 kts 133°
2026-05-07 19:24 50.00674 8.41014 7086 ft 181 kts 133°
2026-05-07 19:24 49.99817 8.42452 7084 ft 181 kts 133°
2026-05-07 19:25 49.98960 8.43885 7084 ft 181 kts 133°
2026-05-07 19:25 49.98104 8.45317 7096 ft 181 kts 133°
2026-05-07 19:25 49.97246 8.46753 7100 ft 181 kts 133°
2026-05-07 19:25 49.96390 8.48186 7093 ft 181 kts 133°
2026-05-07 19:26 49.95532 8.49621 7095 ft 181 kts 133°
2026-05-07 19:26 49.94744 8.51145 7094 ft 181 kts 124°
2026-05-07 19:26 49.94087 8.52811 7094 ft 181 kts 113°
2026-05-07 19:26 49.93743 8.54690 7098 ft 181 kts 103°
2026-05-07 19:27 49.93523 8.56608 7090 ft 181 kts 94°
2026-05-07 19:27 49.93426 8.58553 7094 ft 181 kts 94°
2026-05-07 19:27 49.93329 8.60502 7091 ft 181 kts 93°
2026-05-07 19:27 49.93233 8.62451 7090 ft 181 kts 93°
2026-05-07 19:28 49.93136 8.64403 7091 ft 181 kts 94°
2026-05-07 19:28 49.93040 8.66356 7088 ft 181 kts 94°
2026-05-07 19:28 49.92945 8.68307 7092 ft 181 kts 93°
2026-05-07 19:28 49.92852 8.70260 7091 ft 181 kts 92°
2026-05-07 19:29 49.92904 8.72180 7089 ft 181 kts 83°
2026-05-07 19:29 49.93022 8.74145 7091 ft 181 kts 83°
2026-05-07 19:29 49.93139 8.76063 7088 ft 181 kts 83°
2026-05-07 19:29 49.93257 8.78008 7088 ft 181 kts 83°
2026-05-07 19:30 49.93377 8.79954 7089 ft 181 kts 83°
2026-05-07 19:30 49.93470 8.81902 7087 ft 181 kts 89°
2026-05-07 19:30 49.93394 8.83856 7084 ft 181 kts 94°
2026-05-07 19:30 49.93302 8.85806 7086 ft 181 kts 94°
2026-05-07 19:31 49.93209 8.87761 7084 ft 182 kts 94°
2026-05-07 19:31 49.93115 8.89714 7082 ft 182 kts 94°
2026-05-07 19:31 49.93023 8.91670 7088 ft 182 kts 94°
2026-05-07 19:31 49.92928 8.93626 7085 ft 182 kts 94°
2026-05-07 19:32 49.92835 8.95587 7084 ft 182 kts 94°
2026-05-07 19:32 49.92741 8.97545 7084 ft 182 kts 93°
2026-05-07 19:32 49.92647 8.99503 7083 ft 182 kts 94°
2026-05-07 19:32 49.92563 9.01460 7087 ft 182 kts 91°
2026-05-07 19:33 49.92547 9.03419 7082 ft 182 kts 90°
2026-05-07 19:33 49.92538 9.05378 7082 ft 182 kts 89°
2026-05-07 19:33 49.92528 9.07335 7083 ft 181 kts 89°
2026-05-07 19:33 49.92519 9.09292 7084 ft 181 kts 90°
2026-05-07 19:34 49.92510 9.11248 7086 ft 181 kts 89°
2026-05-07 19:34 49.92499 9.13208 7084 ft 182 kts 89°
2026-05-07 19:34 49.92488 9.15172 7083 ft 182 kts 90°
2026-05-07 19:34 49.92479 9.17254 7085 ft 182 kts 89°
2026-05-07 19:35 49.92459 9.21186 7080 ft 182 kts 89°
2026-05-07 19:35 49.92446 9.25118 7086 ft 183 kts 89°
2026-05-07 19:35 49.92428 9.29055 7085 ft 182 kts 90°
2026-05-07 19:35 49.92411 9.32988 7082 ft 182 kts 90°
2026-05-07 19:36 49.92393 9.36920 7083 ft 182 kts 90°
2026-05-07 19:36 49.92379 9.40847 7084 ft 182 kts 90°
2026-05-07 19:36 49.92364 9.44781 7086 ft 183 kts 90°
2026-05-07 19:36 49.92350 9.48727 7087 ft 183 kts 90°
2026-05-07 19:37 49.92335 9.52666 7088 ft 183 kts 90°
2026-05-07 19:37 49.92321 9.56608 7088 ft 182 kts 90°
2026-05-07 19:37 49.92305 9.60543 7087 ft 183 kts 90°
2026-05-07 19:37 49.92290 9.64487 7087 ft 183 kts 90°
2026-05-07 19:38 49.92274 9.68381 7089 ft 183 kts 90°
2026-05-07 19:38 49.92259 9.72325 7091 ft 183 kts 90°
2026-05-07 19:38 49.92244 9.76276 7088 ft 183 kts 90°
2026-05-07 19:38 49.92226 9.80220 7089 ft 183 kts 89°
2026-05-07 19:39 49.92280 9.84173 7091 ft 183 kts 88°
2026-05-07 19:39 49.92343 9.88127 7094 ft 183 kts 88°
2026-05-07 19:39 49.92409 9.92079 7092 ft 183 kts 88°
2026-05-07 19:39 49.92470 9.96037 7093 ft 183 kts 88°
2026-05-07 19:40 49.92534 9.99995 7097 ft 184 kts 88°
2026-05-07 19:40 49.92593 10.03964 7101 ft 184 kts 88°
2026-05-07 19:40 49.92649 10.07928 7097 ft 184 kts 88°
2026-05-07 19:40 49.92704 10.11898 7097 ft 184 kts 88°
2026-05-07 19:41 49.92756 10.15872 7099 ft 184 kts 88°
2026-05-07 19:41 49.92807 10.19846 7102 ft 184 kts 88°
2026-05-07 19:41 49.92845 10.22840 7097 ft 184 kts 88°
2026-05-07 19:41 49.92871 10.24825 7097 ft 184 kts 88°
2026-05-07 19:42 49.92895 10.26811 7098 ft 184 kts 88°
2026-05-07 19:42 49.92917 10.28796 7099 ft 184 kts 88°
2026-05-07 19:42 49.92941 10.30782 7100 ft 184 kts 88°
2026-05-07 19:42 49.92962 10.32770 7098 ft 184 kts 88°
2026-05-07 19:43 49.92980 10.34759 7099 ft 184 kts 88°
2026-05-07 19:43 49.92963 10.36744 7096 ft 184 kts 99°
2026-05-07 19:43 49.92357 10.38467 7085 ft 184 kts 133°
2026-05-07 19:43 49.91488 10.39926 7101 ft 184 kts 134°
2026-05-07 19:44 49.90619 10.41384 7100 ft 184 kts 134°
2026-05-07 19:44 49.89748 10.42843 7094 ft 185 kts 134°
2026-05-07 19:44 49.88873 10.44303 7096 ft 185 kts 134°
2026-05-07 19:44 49.87997 10.45763 7094 ft 185 kts 134°
2026-05-07 19:45 49.87122 10.47225 7099 ft 185 kts 134°
2026-05-07 19:45 49.86246 10.48685 7094 ft 185 kts 134°
2026-05-07 19:45 49.85369 10.50143 7094 ft 185 kts 134°
2026-05-07 19:45 49.84489 10.51606 7090 ft 186 kts 134°
2026-05-07 19:46 49.83608 10.53068 7102 ft 186 kts 134°
2026-05-07 19:46 49.82728 10.54529 7096 ft 185 kts 134°
2026-05-07 19:46 49.81850 10.55985 7098 ft 185 kts 134°
2026-05-07 19:46 49.80970 10.57441 7094 ft 185 kts 134°
2026-05-07 19:47 49.80092 10.58899 7089 ft 185 kts 133°
2026-05-07 19:47 49.79441 10.60609 7089 ft 185 kts 114°
2026-05-07 19:47 49.78923 10.62406 7096 ft 185 kts 114°
2026-05-07 19:47 49.78397 10.64229 7090 ft 186 kts 114°
2026-05-07 19:48 49.77870 10.66054 7087 ft 186 kts 114°
2026-05-07 19:48 49.77345 10.67876 7089 ft 186 kts 114°
2026-05-07 19:48 49.76819 10.69702 7086 ft 186 kts 114°
2026-05-07 19:48 49.76293 10.71525 7089 ft 186 kts 114°
2026-05-07 19:49 49.75767 10.73349 7086 ft 186 kts 114°
2026-05-07 19:49 49.75242 10.75168 7091 ft 185 kts 114°
2026-05-07 19:49 49.74718 10.76990 7084 ft 186 kts 114°
2026-05-07 19:49 49.74192 10.78813 7087 ft 186 kts 114°
2026-05-07 19:50 49.73665 10.80639 7084 ft 186 kts 114°
2026-05-07 19:50 49.73307 10.81873 7082 ft 186 kts 114°
2026-05-07 19:50 49.72781 10.83697 7091 ft 186 kts 114°
2026-05-07 19:50 49.72260 10.85496 7083 ft 186 kts 114°
2026-05-07 19:51 49.71735 10.87322 7083 ft 186 kts 114°
2026-05-07 19:51 49.71212 10.89143 7089 ft 186 kts 114°
2026-05-07 19:51 49.70685 10.90965 7081 ft 186 kts 114°
2026-05-07 19:51 49.70159 10.92789 7087 ft 186 kts 114°
2026-05-07 19:52 49.69632 10.94612 7089 ft 186 kts 114°
2026-05-07 19:52 49.69105 10.96435 7087 ft 186 kts 114°
2026-05-07 19:52 49.68579 10.98255 7079 ft 186 kts 114°
2026-05-07 19:52 49.68047 11.00102 6982 ft 190 kts 114°
2026-05-07 19:53 49.67498 11.02001 6787 ft 196 kts 114°
2026-05-07 19:53 49.66940 11.03936 6597 ft 197 kts 114°
2026-05-07 19:53 49.66379 11.05867 6401 ft 197 kts 114°
2026-05-07 19:53 49.65820 11.07789 6189 ft 196 kts 114°
2026-05-07 19:54 49.65260 11.09708 5983 ft 196 kts 114°
2026-05-07 19:54 49.64701 11.11625 5774 ft 196 kts 114°
2026-05-07 19:54 49.64141 11.13533 5559 ft 195 kts 114°
2026-05-07 19:54 49.63582 11.15442 5364 ft 195 kts 114°
2026-05-07 19:55 49.63018 11.17349 5158 ft 195 kts 114°
2026-05-07 19:55 49.62454 11.19249 5009 ft 192 kts 114°
2026-05-07 19:55 49.61910 11.21084 5001 ft 186 kts 114°
2026-05-07 19:55 49.61377 11.22882 5000 ft 184 kts 114°
2026-05-07 19:56 49.60845 11.24667 4998 ft 183 kts 114°
2026-05-07 19:56 49.60316 11.26447 4997 ft 182 kts 114°
2026-05-07 19:56 49.59743 11.28183 4991 ft 182 kts 127°
2026-05-07 19:56 49.58785 11.29459 4886 ft 186 kts 144°
2026-05-07 19:57 49.57737 11.30679 4684 ft 191 kts 144°
2026-05-07 19:57 49.56668 11.31912 4485 ft 192 kts 144°
2026-05-07 19:57 49.55612 11.33131 4278 ft 192 kts 144°
2026-05-07 19:57 49.54528 11.34369 4070 ft 191 kts 144°
2026-05-07 19:58 49.53474 11.35570 3999 ft 185 kts 144°
2026-05-07 19:58 49.52452 11.36728 3995 ft 181 kts 144°
2026-05-07 19:58 49.51446 11.37870 3994 ft 179 kts 144°
2026-05-07 19:58 49.50457 11.38990 3993 ft 179 kts 144°
2026-05-07 19:59 49.49452 11.40128 3997 ft 180 kts 144°
2026-05-07 19:59 49.48399 11.41148 3987 ft 179 kts 163°
2026-05-07 19:59 49.47210 11.41034 3988 ft 172 kts 209°
2026-05-07 19:59 49.46451 11.39727 3992 ft 164 kts 251°
2026-05-07 20:00 49.46215 11.38050 4000 ft 160 kts 277°
2026-05-07 20:00 49.46654 11.36516 4003 ft 158 kts 301°
2026-05-07 20:00 49.47105 11.34976 4013 ft 160 kts 286°
2026-05-07 20:00 49.47325 11.33297 4013 ft 160 kts 283°
2026-05-07 20:01 49.47519 11.31602 3959 ft 163 kts 281°
2026-05-07 20:01 49.47708 11.29832 3742 ft 172 kts 280°
2026-05-07 20:01 49.47872 11.28024 3503 ft 167 kts 281°
2026-05-07 20:01 49.48054 11.26308 3282 ft 159 kts 281°
2026-05-07 20:02 49.48207 11.24641 3067 ft 156 kts 281°
2026-05-07 20:02 49.48377 11.23005 2858 ft 154 kts 281°
2026-05-07 20:02 49.48538 11.21380 2655 ft 153 kts 281°
2026-05-07 20:02 49.48690 11.19758 2446 ft 153 kts 281°
2026-05-07 20:03 49.48849 11.18140 2239 ft 153 kts 281°
2026-05-07 20:03 49.49002 11.16585 2038 ft 139 kts 280°
2026-05-07 20:03 49.49143 11.15157 1831 ft 132 kts 279°
2026-05-07 20:03 49.49280 11.13790 1660 ft 119 kts 279°
2026-05-07 20:04 49.49392 11.12646 1497 ft 101 kts 279°
2026-05-07 20:04 49.49495 11.11601 1362 ft 97 kts 279°
2026-05-07 20:04 49.49595 11.10591 1233 ft 93 kts 278°
2026-05-07 20:04 49.49690 11.09632 1113 ft 89 kts 278°
2026-05-07 20:05 49.49765 11.08816 1047 ft 64 kts 278°
2026-05-07 20:05 49.49822 11.08238 1042 ft 47 kts 278°
2026-05-07 20:05 49.49866 11.07808 1047 ft 29 kts 278°
2026-05-07 20:05 49.49845 11.07645 1045 ft 9 kts 180°
2026-05-07 20:06 49.49777 11.07689 1045 ft 6 kts 152°
2026-05-07 20:06 49.49776 11.07690 1045 ft 0 kts 152°
2026-05-07 20:07 49.49773 11.07693 1045 ft 8 kts 152°
2026-05-07 20:07 49.49661 11.07775 1041 ft 11 kts 168°
2026-05-07 20:07 49.49624 11.07771 1038 ft 7 kts 186°
2026-05-07 20:07 49.49596 11.07685 1036 ft 12 kts 277°
2026-05-07 20:08 49.49608 11.07545 1035 ft 14 kts 277°
2026-05-07 20:08 49.49622 11.07403 1033 ft 0 kts 277°
2026-05-07 20:09 49.49627 11.07346 1033 ft 15 kts 279°
2026-05-07 20:09 49.49622 11.07220 1032 ft 8 kts 207°
2026-05-07 20:09 49.49547 11.07201 1029 ft 14 kts 188°
2026-05-07 20:10 49.49498 11.07253 1028 ft 6 kts 97°
2026-05-07 20:10 49.49495 11.07324 1028 ft 5 kts 65°
2026-05-07 20:10 49.49512 11.07350 1029 ft 0 kts 32°